SCP
0 0 0 0 0 0 0 0 0 0 1 2 2 3 4 3 3 3 4 5 4 4 4 3 3 3 3 3 4 3 3 2 2 1 1 1 1 1 1 1 1 1 1 1
0 0 0 0 0 0 0 0 0 1 1 2 3 4 4 3 3 3 4 5 5 5 4 3 3 3 3 3 4 4 3 3 2 2 1 1 1 1 1 1 1 1 1 1
0 0 0 0 1 1 1 1 1 1 2 2 3 4 4 4 4 4 4 5 6 5 5 4 4 4 3 4 5 5 4 3 2 2 1 1 1 1 1 1 1 1 1 1
0 0 0 0 1 1 1 2 2 2 2 3 4 4 3 3 4 4 4 6 6 6 5 6 5 5 4 5 6 6 5 4 3 2 1 1 1 1 1 1 1 1 1 1
0 0 0 0 1 1 2 2 2 2 4 5 5 5 4 3 4 5 5 6 7 7 6 6 6 6 5 6 7 7 6 5 3 2 1 1 1 1 1 1 1 1 1 1
0 0 0 1 1 1 1 2 2 3 5 6 5 4 3 3 4 5 6 7 8 8 7 6 6 5 5 6 8 8 7 5 3 2 1 1 1 1 1 1 1 1 1 1
0 0 0 1 1 1 1 1 2 4 5 5 4 3 3 3 4 5 7 8 9 8 6 5 4 4 4 5 7 8 7 5 4 3 2 2 2 1 1 1 1 1 2 2
0 0 0 1 1 1 1 2 3 4 4 4 3 3 3 4 5 7 8 9 9 8 6 5 4 3 3 4 6 7 6 5 4 3 3 3 2 2 2 1 1 2 2 2
0 1 1 1 1 1 2 3 5 5 4 3 3 3 3 4 6 9 11 11 9 7 5 4 3 3 3 4 5 6 5 4 4 4 4 3 3 2 2 1 1 1 2 2
1 2 2 2 2 2 3 4 6 5 4 3 3 3 3 5 9 12 13 11 8 6 5 4 3 3 3 4 5 4 4 4 4 4 4 4 3 2 2 2 1 1 1 1
2 2 3 3 3 3 4 5 5 5 4 4 4 5 5 7 11 13 12 9 6 5 4 4 4 3 4 4 4 4 4 5 5 5 4 4 3 2 1 1 1 1 1 1
2 2 3 3 3 4 4 4 4 4 4 5 6 6 7 9 11 11 9 7 5 4 4 4 4 4 4 4 5 6 6 6 6 6 5 4 2 1 1 1 1 1 0 0
2 2 3 3 4 4 4 4 4 4 5 6 7 8 8 9 10 9 8 6 5 5 4 4 4 4 4 5 6 7 7 7 7 7 5 3 1 1 1 0 0 0 0 0
2 2 3 3 4 4 4 4 4 5 7 8 9 9 9 9 9 9 9 8 6 6 5 4 4 4 4 6 7 8 8 8 8 6 4 2 1 0 0 0 0 0 0 0
2 2 3 3 4 4 5 5 6 6 8 10 10 10 9 9 8 7 8 7 7 6 6 5 4 3 4 6 7 8 8 7 6 4 2 1 0 0 0 0 0 0 0 0
2 2 3 4 4 5 5 5 6 7 9 11 12 10 9 8 7 5 5 6 6 6 6 5 4 4 5 6 7 7 7 5 3 2 1 0 0 0 0 0 0 0 0 0
2 2 3 4 4 5 5 5 5 7 10 12 12 10 8 7 5 4 4 4 4 5 5 4 4 5 6 7 7 5 3 2 1 0 0 0 0 0 0 0 0 0 0 0
2 2 2 2 3 4 4 4 4 6 8 9 9 7 6 5 4 3 3 3 3 3 3 3 4 5 5 5 4 2 1 0 0 0 0 0 0 0 1 1 1 0 0 0
2 2 2 1 2 2 3 3 3 4 4 5 5 4 4 3 3 2 2 2 2 2 1 1 2 2 3 2 1 0 0 0 0 0 0 0 0 0 0 0 0 0 0 0
1 1 1 1 1 1 2 2 2 2 2 2 2 3 3 2 2 1 1 1 1 1 1 0 0 0 0 0 0 0 0 0 0 0 0 0 0 0 0 0 0 0 0 0
1 1 1 1 1 1 1 2 2 1 1 2 2 2 2 2 1 1 0 0 0 1 1 0 0 0 0 0 0 0 0 0 0 0 0 0 0 0 0 0 0 0 0 0
1 1 1 1 1 0 1 1 1 1 1 1 2 2 2 2 1 1 0 0 0 0 0 0 0 0 0 0 0 0 0 0 0 0 0 0 0 0 0 0 0 0 0 0
1 1 1 0 0 0 0 0 0 0 0 1 2 2 3 2 2 1 0 0 0 0 0 0 0 0 0 0 0 0 0 0 0 0 0 0 0 0 0 0 0 0 0 0
0 0 0 0 0 0 0 0 0 0 0 1 1 2 3 3 2 1 1 0 0 0 0 0 0 0 0 0 0 0 0 0 0 0 0 0 0 0 0 0 0 0 0 0
0 0 0 0 0 0 0 0 0 0 0 1 1 2 2 3 3 2 1 1 0 0 0 0 0 0 0 0 0 0 0 0 0 0 0 0 0 0 0 0 0 0 0 0
0 0 0 0 0 0 0 0 0 0 0 0 1 1 1 2 2 2 1 1 0 0 0 0 0 0 0 0 0 0 0 0 0 0 0 0 0 0 0 0 0 0 0 0
0 0 0 0 0 0 0 0 0 0 0 0 0 1 1 1 2 2 1 1 0 0 0 0 0 0 0 0 0 0 0 0 0 0 0 0 0 0 0 0 0 0 0 0
Wind_Speed
3 3 3 3 3 5 5 7 8 8 8 9 8 8 7 6 6 6 6 5 5 5 4 4 4 4 4 3 3 3 3 2 2 1 1 1 2 2 2 2 2 2 2 2
1 1 2 1 3 5 4 4 4 2 7 7 3 3 4 6 8 8 7 7 6 5 6 6 5 5 4 4 4 4 3 2 2 2 2 2 2 2 2 2 2 2 2 2
1 3 2 3 4 5 4 3 6 7 8 2 2 5 8 8 8 8 8 7 7 7 6 6 5 5 5 4 3 4 3 2 2 2 2 2 2 2 2 2 2 2 2 2
2 2 4 8 2 3 4 3 4 4 4 4 5 4 3 5 7 7 6 6 6 6 5 5 4 5 4 4 4 3 3 2 2 2 2 2 3 2 2 2 2 2 2 2
4 3 4 6 2 3 3 3 2 3 2 1 3 4 2 1 4 6 6 6 5 5 5 5 5 5 5 4 4 3 3 2 2 3 3 3 2 2 2 2 2 2 2 2
5 4 6 8 4 1 3 3 3 3 4 4 5 2 3 2 3 4 4 5 5 5 5 5 5 5 6 5 4 3 3 2 2 3 3 3 2 2 2 2 2 2 2 2
4 4 7 6 4 1 4 7 3 4 6 6 4 5 4 3 4 5 6 5 6 7 6 4 4 5 5 4 3 3 3 3 3 2 3 3 3 2 2 3 3 3 3 3
4 3 7 3 1 4 6 3 2 3 4 4 3 2 3 5 6 6 6 6 6 6 5 4 5 6 5 3 2 3 4 4 3 2 2 3 3 3 3 3 3 2 2 2
6 7 5 2 3 3 2 2 2 3 3 5 4 3 2 4 5 6 6 6 5 6 5 3 3 4 5 3 3 4 4 4 3 3 3 3 3 3 3 2 2 1 1 1
2 5 4 4 4 3 2 2 1 3 4 5 5 4 4 5 5 5 5 6 5 7 6 4 2 2 3 4 4 5 4 3 3 3 3 3 2 2 2 2 1 1 1 0
3 5 5 5 3 3 2 1 1 1 1 3 4 3 4 5 5 5 4 4 5 6 6 5 4 3 3 4 5 5 4 3 3 3 3 3 3 2 2 1 1 1 1 1
6 6 4 6 5 2 1 1 2 2 1 1 3 4 5 6 5 5 5 5 5 5 5 5 4 4 3 3 4 5 4 3 2 2 3 3 3 3 6 4 3 3 2 1
6 4 4 5 4 2 2 1 1 1 3 3 2 4 6 6 5 5 6 6 6 6 5 5 4 3 2 3 4 4 4 3 2 2 2 3 3 3 2 3 5 5 4 2
5 2 3 4 3 2 0 1 2 2 1 1 3 5 7 6 5 5 5 5 5 6 5 4 4 3 2 3 3 4 3 3 3 2 2 2 2 2 2 2 2 2 3 3
4 3 4 3 2 1 1 2 4 3 2 2 4 6 7 7 6 4 4 5 6 6 5 4 4 2 2 3 4 3 3 2 2 2 2 2 2 2 2 2 2 1 1 2
2 1 1 2 2 2 2 4 4 3 3 4 5 5 6 7 6 4 3 5 6 6 4 4 3 2 2 3 3 3 2 3 3 2 3 3 2 2 2 2 2 1 1 0
3 3 3 4 3 2 2 2 4 5 5 5 6 6 7 7 7 5 4 4 4 4 4 4 3 2 3 4 3 2 2 2 3 3 2 2 2 2 2 2 2 1 0 0
5 5 6 6 5 4 2 2 4 4 5 6 7 7 7 7 6 5 4 4 4 4 2 2 2 2 2 3 3 3 3 2 2 2 2 2 2 2 2 2 2 2 0 0
2 3 3 4 5 4 4 4 4 4 4 6 7 7 6 6 5 5 5 5 5 3 0 1 3 3 2 2 3 3 3 3 2 2 2 3 2 2 2 2 2 2 1 1
1 2 3 3 3 3 5 6 7 6 4 6 7 7 7 6 5 6 6 4 2 2 1 1 2 2 2 2 3 3 3 3 3 2 2 2 2 2 2 2 2 2 1 1
2 3 4 3 3 4 5 6 7 6 5 6 7 6 6 5 5 5 5 3 0 1 1 2 2 1 1 2 3 3 3 3 3 3 2 2 2 2 2 2 2 1 1 1
2 3 4 5 5 4 4 5 6 7 6 5 5 6 6 5 4 3 3 2 2 2 2 1 1 1 2 3 2 2 3 3 3 2 2 2 2 2 2 2 2 1 1 1
2 3 4 4 5 4 4 4 5 5 5 4 5 5 5 4 3 4 2 1 1 2 2 1 2 2 3 2 2 2 3 3 2 2 2 2 3 3 2 2 2 2 1 1
3 3 4 4 4 5 4 3 3 3 3 3 3 4 5 4 2 1 1 2 3 3 2 2 2 3 4 2 2 2 2 2 2 2 2 2 2 2 2 2 2 2 2 2
3 4 4 4 4 2 3 4 4 3 3 3 3 3 2 2 2 2 2 2 3 3 1 2 3 4 3 2 3 2 2 2 2 2 2 2 2 2 2 2 2 2 2 2
3 2 2 2 2 2 2 3 3 2 2 2 1 1 1 1 2 2 2 2 3 3 2 1 2 2 2 2 2 3 2 2 2 2 2 2 3 3 2 3 3 3 3 2
4 3 3 3 2 2 2 2 2 2 2 2 2 1 1 2 2 2 2 2 2 2 2 2 2 2 2 2 2 2 2 2 2 2 2 2 2 2 3 3 3 2 2 2
Wind_Direction
213 219 188 187 187 176 177 180 181 220 218 238 229 214 201 185 172 164 168 170 173 170 161 156 152 154 155 152 139 136 132 139 157 147 131 117 103 97 91 85 82 77 69 54
311 283 198 204 219 192 200 188 205 214 246 252 239 179 173 177 174 178 183 182 174 167 163 163 165 167 161 155 154 146 147 163 155 140 133 119 103 96 93 85 75 72 69 65
239 305 57 267 228 190 187 194 176 200 231 225 188 193 191 185 183 186 186 179 173 175 177 173 170 167 167 169 154 144 154 154 145 149 142 130 109 97 96 92 84 74 61 67
130 92 206 240 249 183 178 214 209 222 235 200 209 213 178 167 175 183 180 176 176 174 170 161 156 150 148 144 147 148 151 153 160 155 144 126 114 109 98 90 85 75 64 58
127 167 259 288 266 171 175 248 225 201 213 87 87 71 28 161 169 179 175 167 165 164 158 148 149 146 137 139 143 145 154 162 159 151 139 130 121 119 120 100 74 57 57 56
130 154 218 243 273 267 137 259 254 179 170 151 109 122 244 219 154 149 137 136 137 130 124 136 146 143 138 144 145 157 165 155 140 138 141 142 136 126 109 107 104 81 60 49
149 188 248 256 288 64 158 241 246 180 172 162 179 200 197 155 141 134 128 128 129 126 133 141 139 137 140 146 165 169 134 115 113 122 136 136 126 115 107 103 94 79 71 50
146 171 245 276 88 167 217 259 208 184 175 159 159 141 136 136 136 131 125 123 124 125 125 126 134 139 142 157 159 125 120 116 115 113 120 118 115 108 102 106 99 82 72 50
186 208 243 267 234 252 224 223 229 182 169 146 142 152 144 138 137 135 131 129 125 126 115 107 125 139 146 155 128 122 117 118 116 105 93 107 117 116 107 102 105 92 80 55
262 274 282 289 284 285 261 242 243 178 165 159 159 163 155 145 140 138 136 136 129 125 124 127 129 122 130 126 125 120 120 120 117 112 98 86 87 98 106 111 117 117 106 74
264 280 308 306 301 302 324 26 85 88 152 172 154 153 157 149 147 147 136 132 132 136 137 140 133 116 113 122 122 116 117 119 115 114 118 105 83 65 81 70 134 167 181 163
231 236 232 270 291 298 286 239 167 143 112 165 159 163 156 150 147 143 137 132 132 130 128 130 130 124 121 126 128 128 127 131 130 128 123 121 113 77 50 54 53 72 87 120
242 254 248 272 293 307 295 281 247 184 176 170 165 155 145 140 140 137 135 136 140 138 133 131 126 122 123 130 132 135 140 144 137 135 136 135 135 134 109 55 56 64 69 74
245 249 275 274 277 305 15 37 53 59 75 139 145 134 132 128 128 133 137 139 134 127 123 123 122 119 118 119 124 130 135 141 142 153 153 151 152 148 139 128 94 38 33 45
272 228 230 249 268 281 175 125 105 94 79 92 117 125 130 130 132 131 126 127 122 117 114 116 117 109 101 119 124 127 131 136 142 148 144 141 138 135 133 129 120 92 49 37
277 240 201 204 224 227 172 144 136 137 126 123 123 124 125 124 119 111 112 125 128 127 128 126 125 127 120 115 116 119 125 135 136 142 134 131 134 140 143 141 133 123 103 62
206 215 208 207 212 197 169 170 162 153 146 143 145 135 124 119 113 107 109 114 120 124 129 130 132 125 119 125 135 136 130 133 128 128 137 145 149 154 157 155 153 151 176 239
222 211 197 187 182 167 147 139 137 143 154 151 140 130 127 129 130 130 125 115 106 91 83 101 112 113 119 129 135 136 137 137 134 137 140 142 143 150 155 162 169 162 130 73
212 180 165 157 160 159 159 147 134 129 139 143 136 136 134 129 130 129 120 118 118 115 81 80 114 112 120 129 125 132 136 134 130 131 133 132 132 136 147 156 163 167 163 149
112 125 128 136 145 148 143 132 119 109 121 129 126 124 121 123 129 128 122 120 146 185 179 127 119 117 125 128 119 128 135 140 141 140 135 139 143 146 152 157 159 164 169 180
115 119 124 125 111 107 120 122 117 117 117 120 122 125 125 128 130 129 126 126 200 132 127 132 128 134 134 129 125 132 137 137 138 142 147 151 151 152 156 163 169 177 183 196
89 104 104 106 106 103 107 112 117 120 116 111 113 120 123 125 122 114 119 152 173 156 146 156 160 152 138 135 138 142 144 143 142 145 155 162 163 165 173 187 197 201 196 206
83 92 94 102 112 108 100 103 112 120 128 134 137 139 139 139 141 138 147 188 159 164 162 169 164 149 143 135 138 141 144 149 154 161 168 172 175 179 187 198 206 210 211 212
75 76 82 86 93 101 104 98 96 108 119 118 130 136 134 129 120 144 155 158 160 161 166 171 162 158 154 147 143 146 153 159 162 166 169 171 177 183 188 190 192 197 206 208
74 80 90 99 102 112 116 109 99 96 99 99 103 113 128 142 154 168 160 161 161 160 159 161 162 163 157 151 154 159 166 169 167 165 167 174 184 187 192 195 196 200 208 212
70 78 84 90 97 118 122 119 118 121 119 113 99 98 106 115 132 142 147 157 157 156 153 150 157 159 156 158 166 170 166 159 161 173 183 188 191 193 200 206 210 214 219 220
62 64 67 59 52 76 109 121 132 146 151 150 149 151 152 150 149 157 160 159 156 157 159 156 156 160 161 160 161 169 172 173 185 194 194 193 193 202 212 213 215 218 219 220